Location: Johnson City
(36.3130°N, 82.3540°W)
Time: 15:37:03
(UTC-05:00)

N. Korean satellite - Visible Passes

Search period start: 23 November 2017 00:00
Search period end: 03 December 2017 00:00
Orbit: 460 x 514 km, 97.2° (Epoch: 22 November)

Date Brightness Start Highest point End Pass type
(mag) Time Alt. Az. Time Alt. Az. Time Alt. Az.
23 Nov 10.0 06:17:05 10° ENE 06:19:08 14° E 06:21:10 10° SE visible
23 Nov 6.5 18:22:39 10° SSE 18:26:05 61° ENE 18:29:37 10° N visible
24 Nov 7.4 17:59:38 10° SE 18:02:41 28° ENE 18:05:48 10° NNE visible
24 Nov 9.9 19:34:30 10° WSW 19:36:15 13° W 19:38:02 10° WNW visible
25 Nov 8.7 19:09:36 10° SSW 19:12:37 27° W 19:15:42 10° NW visible
26 Nov 9.2 06:39:02 10° NE 06:42:16 27° E 06:45:31 10° SSE visible
26 Nov 7.1 18:45:35 10° S 18:49:03 59° W 18:52:37 10° NNW visible
27 Nov 10.0 06:16:37 10° ENE 06:18:39 14° E 06:20:41 10° SE visible
27 Nov 6.5 18:22:05 10° SSE 18:25:33 61° ENE 18:29:08 10° N visible
28 Nov 7.4 17:59:04 10° SE 18:02:09 28° ENE 18:05:18 10° NNE visible
28 Nov 9.8 19:33:52 10° SW 19:35:43 14° W 19:37:35 10° WNW visible
29 Nov 8.7 19:09:00 10° SSW 19:12:03 27° W 19:15:12 10° NW visible
30 Nov 9.2 06:38:30 10° NE 06:41:45 27° E 06:44:57 10° SSE visible
30 Nov 7.1 18:44:58 10° S 18:48:28 59° W 18:52:05 10° NNW visible
01 Dec 10.0 06:16:05 10° ENE 06:18:05 14° E 06:20:05 10° SE visible
01 Dec 6.5 18:21:27 10° SSE 18:24:58 61° ENE 18:28:35 10° N visible
02 Dec 7.4 17:58:26 10° SE 18:01:32 28° ENE 18:04:43 10° NNE visible
02 Dec 9.8 19:33:10 10° SW 19:35:06 14° W 19:37:04 10° WNW visible
